SL-14 DEB

Satellite information

Favourite Embed

Satellite Type and Status

DEBRISIN ORBIT

Key statistics

Satellite SL-14 DEB at a glance.

Uptime

13998

Days in orbit

Revolutions

≈ 14.4

Per day

Orbit

LEO

Low Earth Orbit

Inclination

82.1

Latest

Satellite identification and parameters

Extended collection of information and parameters for SL-14 DEB.

Object identification

Identified? True

Debris? True

Object name: SL-14 DEB

International designator: 1987-068DK

Object number (NORAD): 39983

Object ID (CCSDS): 39983

Country: COMMONWEALTH OF INDEPENDENT STATES (CIS)

Current information (Y/N): Y

RCS size: SMALL

Orbital parameters

Period: 100.029 minutes

Inclination: 82.1397 deg

SMA: 7138.036 km

Apoapsis: 787.773 km

Periapsis: 732.029 km

RAAN: 67.6672 deg

Eccentricy: 0.00390467

Argument of periapsis: 350.705 deg

Mean anomaly: 38.5136 deg

Mean motion: 14.39576219 rev/day

Mean motion (dot): 0.00011524 rev/day2

B* drag term: 0.0036504483 1/REarth

Two-line elements (TLE)

Creation date: Dec. 12, 2025, 10:14 a.m.

Reference frame: TEME

Reference center: EARTH

Epoch: Dec. 12, 2025, 5:17 a.m. UTC

TLE line 0: 0 SL-14 DEB

TLE line 1: 1 39983U 87068DK 25346.22045000 .00011524 00000-0 36504-2 0 9997

TLE line 2: 2 39983 82.1397 67.6672 0039047 350.7050 38.5136 14.39576219596161

Live tracking on map

Real-time ground track for satellite SL-14 DEB.

In-orbit conjunctions

A list of the most updated potential collisions computed for object SL-14 DEB.

Target Orbit TCA Probability of collision Miss distance Type
COSMOS 2251 DEB LEO 2024-11-21 14:28:24 0.0001353029 83.0 (m) DEBRIS
SL-16 DEB LEO 2024-11-15 11:45:08 0.0001099284 110.0 (m) DEBRIS

Associated space launch

Second generation soviet meteorological satellite

SL-14 DEB was lifted into orbit during the mission ‘Tsiklon-3 | Meteor-2 16’, on board a Tsiklon-3 space rocket.

The launch took place on Aug. 18, 1987, 2:27 a.m. from 32/1.

For more information about the launch, click the button.

Launch to space Tsiklon-3 | Meteor-2 16
Tsiklon-3 | Meteor-2 16

Agency: N/A

Status: Launch Successful

Launch date: Aug. 18, 1987, 2:27 a.m. UTC

Rocket: Tsiklon-3

Launch pad: 32/1

Location: Plesetsk Cosmodrome, Russian Federation

...

Latest news about this satellite

There are no fresh news available about this satellite. Check back as we update our databases every day.


Newsletter sign-up

Weekly statistics, charts and insights to help you stay on top of the space industry.